Location: Dompnac
(44.5644°N, 4.1026°E)
Time: 11:01:09
(UTC+00:00)

Cosmos 1674 - Pass Details

Date: 19 September 2020
Orbit: 494 x 518 km, 82.5° (Epoch: 29 October)

Event Time Altitude Azimuth Distance (km) Brightness Sun altitude
Rises 18:45:48 0° 6° (N) 2,653 6.4 -11.4°
Reaches altitude 10° 18:48:28 10° 25° (NNE) 1,760 5.3 -11.8°
Maximum altitude 18:51:14 19° 71° (ENE) 1,301 4.2 -12.3°
Enters shadow 18:51:50 18° 83° (E) 1,324 4.2 -12.4°
